Find Starlink 3632

NORAD ID: 51784 Int'l Des: 2022-017 Owner: SPXS Country: US Constellation: starlink operational
LEOCIRCULAR

Live Position

Loading 3D Globe...

About Starlink 3632

Description loading...

Upcoming Passes

Passes for default location (London). Set your location on the main map for personalized predictions.

Altitude History

Loading altitude history...

Two-Line Element Set

1 51784U 22017S 26127.15406892 .00000245 00000-0 33503-4 0 9999
2 51784 53.2167 86.6632 0001402 89.6814 270.4338 15.08839975231104
Epoch: May 7, 2026 • Age: 6 hours

Current Status

Altitude 543.7 km
Velocity 7.59 km/s
Sub-Earth Point -13.83°S, 59.97°E
Launch Date Feb 25, 2022
Age 4.1 years
Type internet

Technical Details

Classification Payload
Mass 297.00 kg
Dry Mass 275.00 kg
Total Mass 297.00 kg
Length 0.20 m
Diameter 2.80 m
Span 9.00 m
Shape Box + pan
Manufacturer SPXS
Bus Type Starlink
Phase Status In Orbit
Owner/State SPXS/US

Most Searched